Location: Strada George Coșbuc
(47.6577°N, 23.5639°E)
Time: 22:26:54
(UTC+03:00)

ISS - Pass Details

Date: 28 September 2017
Orbit: 401 x 407 km, 51.6° (Epoch: 25 September)

Event Time Altitude Azimuth Distance (km) Brightness Sun altitude
Rises 21:17:59 0° 253° (WSW) 2,314 0.8 -21.8°
Reaches altitude 10° 21:20:04 10° 255° (WSW) 1,458 -0.3 -22.1°
Enters shadow 21:22:37 49° 277° (W) 530 -3.0 -22.5°
